timestamp,surface_pressure_avg,surface_temp_avg,battery_voltage,lat,long
2019-01-24 00:00:00+00:00,318.9296,1.17,12.97,47.84626,-54.09684
2019-01-24 00:10:00+00:00,331.0863,1.18,12.97,47.84626,-54.09684
2019-01-24 00:20:00+00:00,333.278,1.19,13.05,47.84626,-54.09684
2019-01-24 00:30:00+00:00,336.2764,1.18,13.05,47.84626,-54.09684
2019-01-24 00:40:00+00:00,341.3097,1.16,13.05,47.84626,-54.09684
2019-01-24 00:50:00+00:00,348.6696,1.17,13.05,47.84626,-54.09684
2019-01-24 01:00:00+00:00,350.2697,1.18,12.97,47.84626,-54.09684
2019-01-24 01:10:00+00:00,354.2646,1.19,12.89,47.84626,-54.09684
2019-01-24 01:20:00+00:00,360.8346,1.17,12.97,47.84626,-54.09684
2019-01-24 01:30:00+00:00,362.2162,1.16,12.97,47.84626,-54.09684
2019-01-24 01:40:00+00:00,358.198,1.15,13.05,47.84626,-54.09684
2019-01-24 01:50:00+00:00,362.8662,1.11,13.05,47.84626,-54.09684
2019-01-24 02:00:00+00:00,368.153,1.13,12.97,47.84626,-54.09684
2019-01-24 02:10:00+00:00,365.4279,1.14,12.89,47.84626,-54.09684
2019-01-24 02:20:00+00:00,359.4946,1.15,12.97,47.84626,-54.09684
2019-01-24 02:30:00+00:00,359.4513,1.16,12.97,47.84626,-54.09684
2019-01-24 02:40:00+00:00,357.0879,1.15,13.05,47.84626,-54.09684
2019-01-24 02:50:00+00:00,353.063,1.14,13.05,47.84626,-54.09684
2019-01-24 03:00:00+00:00,351.9597,1.13,12.97,47.84626,-54.09684
2019-01-24 03:10:00+00:00,346.8196,1.14,12.89,47.84626,-54.09684
2019-01-24 03:20:00+00:00,339.3346,1.13,12.97,47.84626,-54.09684
2019-01-24 03:30:00+00:00,333.7396,1.14,12.97,47.84626,-54.09684
2019-01-24 03:40:00+00:00,330.8962,1.15,12.97,47.84626,-54.09684
2019-01-24 03:50:00+00:00,319.7863,1.12,13.05,47.84626,-54.09684
2019-01-24 04:00:00+00:00,309.6564,1.13,12.97,47.84626,-54.09684
2019-01-24 04:10:00+00:00,301.1047,1.15,12.89,47.84626,-54.09684
2019-01-24 04:20:00+00:00,290.6614,1.14,12.97,47.84626,-54.09684
2019-01-24 04:30:00+00:00,279.2614,1.15,12.97,47.84626,-54.09684
2019-01-24 04:40:00+00:00,272.8081,1.16,12.97,47.84626,-54.09684
2019-01-24 04:50:00+00:00,270.3981,1.18,12.97,47.84626,-54.09684
2019-01-24 05:00:00+00:00,258.6348,1.15,12.89,47.84626,-54.09684
2019-01-24 05:10:00+00:00,243.9431,1.14,12.81,47.84626,-54.09684
2019-01-24 05:20:00+00:00,234.4098,1.15,12.97,47.84626,-54.09684
2019-01-24 05:30:00+00:00,229.0914,1.16,12.97,47.84626,-54.09684
2019-01-24 05:40:00+00:00,217.4114,1.15,12.97,47.84626,-54.09684
2019-01-24 05:50:00+00:00,204.0598,1.14,12.97,47.84626,-54.09684
2019-01-24 06:00:00+00:00,196.6031,1.15,12.89,47.84626,-54.09684
2019-01-24 06:10:00+00:00,192.7748,1.17,12.81,47.84626,-54.09684
2019-01-24 06:20:00+00:00,185.3232,1.14,12.97,47.84626,-54.09684
2019-01-24 06:30:00+00:00,177.1698,1.1,12.97,47.84626,-54.09684
2019-01-24 06:40:00+00:00,175.8381,1.1,12.97,47.84626,-54.09684
2019-01-24 06:50:00+00:00,173.6481,1.1,12.97,47.84626,-54.09684
2019-01-24 07:00:00+00:00,168.5948,1.0,12.89,47.84626,-54.09684
2019-01-24 07:10:00+00:00,167.4381,0.97,12.81,47.84626,-54.09684
2019-01-24 07:20:00+00:00,167.0482,0.99,12.89,47.84626,-54.09684
2019-01-24 07:30:00+00:00,163.2348,1.0,12.97,47.84626,-54.09684
2019-01-24 07:40:00+00:00,160.8948,1.07,12.97,47.84626,-54.09684
2019-01-24 07:50:00+00:00,164.0498,1.1,12.97,47.84626,-54.09684
2019-01-24 08:00:00+00:00,167.0882,1.1,12.89,47.84626,-54.09684
2019-01-24 08:10:00+00:00,167.6065,1.1,12.81,47.84626,-54.09684
2019-01-24 08:20:00+00:00,171.8181,1.1,12.89,47.84626,-54.09684
2019-01-24 08:30:00+00:00,179.9648,1.1,12.89,47.84626,-54.09684
2019-01-24 08:40:00+00:00,185.0298,1.13,12.97,47.84626,-54.09684
2019-01-24 08:50:00+00:00,188.4964,1.15,12.97,47.84626,-54.09684
2019-01-24 09:00:00+00:00,194.3998,1.16,12.89,47.84626,-54.09684
2019-01-24 09:10:00+00:00,201.7048,1.16,12.81,47.84626,-54.09684
2019-01-24 09:20:00+00:00,204.4931,1.17,12.89,47.84626,-54.09684
2019-01-24 09:30:00+00:00,207.8548,1.18,12.89,47.84626,-54.09684
2019-01-24 09:40:00+00:00,212.7548,1.19,12.97,47.84626,-54.09684
2019-01-24 09:50:00+00:00,216.9898,1.19,12.97,47.84626,-54.09684
2019-01-24 10:00:00+00:00,218.8197,1.2,12.89,47.84626,-54.09684
2019-01-24 10:10:00+00:00,221.8081,1.2,12.81,47.84626,-54.09684
2019-01-24 10:20:00+00:00,227.5314,1.19,12.89,47.84626,-54.09684
2019-01-24 10:30:00+00:00,231.4931,1.19,12.89,47.84626,-54.09684
2019-01-24 10:40:00+00:00,237.6347,1.19,12.97,47.84626,-54.09684
2019-01-24 10:50:00+00:00,246.8364,1.19,12.97,47.84626,-54.09684
2019-01-24 11:00:00+00:00,253.0081,1.19,12.89,47.84626,-54.09684
2019-01-24 11:10:00+00:00,258.6364,1.18,12.81,47.84626,-54.09684
2019-01-24 11:20:00+00:00,265.1814,1.19,12.89,47.84626,-54.09684
2019-01-24 11:30:00+00:00,271.6314,1.19,12.89,47.84626,-54.09684
2019-01-24 11:40:00+00:00,277.548,1.19,12.89,47.84626,-54.09684
2019-01-24 11:50:00+00:00,289.1664,1.19,12.97,47.84626,-54.09684
2019-01-24 12:00:00+00:00,299.238,1.19,12.81,47.84626,-54.09684
2019-01-24 12:10:00+00:00,306.3014,1.2,12.81,47.84626,-54.09684
2019-01-24 12:20:00+00:00,312.773,1.19,12.89,47.84626,-54.09684
2019-01-24 12:30:00+00:00,326.188,1.19,12.89,47.84626,-54.09684
2019-01-24 12:40:00+00:00,335.2845,1.2,12.97,47.84626,-54.09684
2019-01-24 12:50:00+00:00,340.588,1.2,12.97,47.84626,-54.09684
2019-01-24 13:00:00+00:00,347.5147,1.2,12.89,47.84626,-54.09684
2019-01-24 13:10:00+00:00,355.0646,1.2,12.81,47.84626,-54.09684
2019-01-24 13:20:00+00:00,360.5779,1.2,12.97,47.84626,-54.09684
2019-01-24 13:30:00+00:00,362.0696,1.2,12.97,47.84626,-54.09684
2019-01-24 13:40:00+00:00,366.3279,1.2,13.05,47.84626,-54.09684
2019-01-24 13:50:00+00:00,374.1996,1.2,13.13,47.84626,-54.09684
2019-01-24 14:00:00+00:00,375.1563,1.2,13.05,47.84626,-54.09684
2019-01-24 14:10:00+00:00,376.4212,1.2,13.05,47.84626,-54.09684
2019-01-24 14:20:00+00:00,383.4863,1.2,13.13,47.84626,-54.09684
2019-01-24 14:30:00+00:00,388.8162,1.2,13.21,47.84626,-54.09684
2019-01-24 14:40:00+00:00,383.4695,1.2,13.37,47.84626,-54.09684
2019-01-24 14:50:00+00:00,379.4263,1.19,13.44,47.84626,-54.09684
2019-01-24 15:00:00+00:00,380.0979,1.19,13.44,47.84626,-54.09684
2019-01-24 15:10:00+00:00,373.5946,1.19,13.37,47.84626,-54.09684
2019-01-24 15:20:00+00:00,364.2529,1.18,13.44,47.84626,-54.09684
2019-01-24 15:30:00+00:00,358.3796,1.18,13.44,47.84626,-54.09684
2019-01-24 15:40:00+00:00,354.3929,1.19,13.53,47.84626,-54.09684
2019-01-24 15:50:00+00:00,346.8314,1.18,13.53,47.84626,-54.09684
2019-01-24 16:00:00+00:00,337.8946,1.16,13.44,47.84626,-54.09684
2019-01-24 16:10:00+00:00,331.7913,1.17,13.29,47.84626,-54.09684
2019-01-24 16:20:00+00:00,323.688,1.19,13.37,47.84626,-54.09684
2019-01-24 16:30:00+00:00,312.3547,1.19,13.29,47.84626,-54.09684
2019-01-24 16:40:00+00:00,302.9963,1.19,13.37,47.84626,-54.09684
2019-01-24 16:50:00+00:00,290.8947,1.19,13.29,47.84626,-54.09684
2019-01-24 17:00:00+00:00,280.5914,1.19,13.21,47.84626,-54.09684
2019-01-24 17:10:00+00:00,271.0897,1.19,13.05,47.84626,-54.09684
2019-01-24 17:20:00+00:00,260.1681,1.19,13.13,47.84626,-54.09684
2019-01-24 17:30:00+00:00,247.5597,1.18,13.13,47.84626,-54.09684
2019-01-24 17:40:00+00:00,237.2148,1.17,13.13,47.84626,-54.09684
2019-01-24 17:50:00+00:00,225.1515,1.18,13.13,47.84626,-54.09684
2019-01-24 18:00:00+00:00,212.0698,1.17,13.05,47.84626,-54.09684
2019-01-24 18:10:00+00:00,202.2481,1.19,12.89,47.84626,-54.09684
2019-01-24 18:20:00+00:00,194.3748,1.2,12.97,47.84626,-54.09684
2019-01-24 18:30:00+00:00,182.6714,1.2,12.97,47.84626,-54.09684
2019-01-24 18:40:00+00:00,173.7382,1.2,12.97,47.84626,-54.09684
2019-01-24 18:50:00+00:00,173.0832,1.2,12.97,47.84626,-54.09684
2019-01-24 19:00:00+00:00,168.6949,1.2,12.89,47.84626,-54.09684
2019-01-24 19:10:00+00:00,161.1948,1.2,12.81,47.84626,-54.09684
2019-01-24 19:20:00+00:00,157.7365,1.2,12.89,47.84626,-54.09684
2019-01-24 19:30:00+00:00,156.8748,1.2,12.89,47.84626,-54.09684
2019-01-24 19:40:00+00:00,152.6682,1.2,12.97,47.84626,-54.09684
2019-01-24 19:50:00+00:00,149.2448,1.2,12.97,47.84626,-54.09684
2019-01-24 20:00:00+00:00,151.0815,1.2,12.89,47.84626,-54.09684
2019-01-24 20:10:00+00:00,153.6482,1.2,12.81,47.84626,-54.09684
2019-01-24 20:20:00+00:00,154.1599,1.2,12.89,47.84626,-54.09684
2019-01-24 20:30:00+00:00,157.9848,1.2,12.89,47.84626,-54.09684
2019-01-24 20:40:00+00:00,165.9115,1.2,12.97,47.84626,-54.09684
2019-01-24 20:50:00+00:00,170.6431,1.2,12.97,47.84626,-54.09684
2019-01-24 21:00:00+00:00,176.1315,1.2,12.89,47.84626,-54.09684
2019-01-24 21:10:00+00:00,179.0432,1.19,12.81,47.84626,-54.09684
2019-01-24 21:20:00+00:00,180.8181,1.2,12.89,47.84626,-54.09684
2019-01-24 21:30:00+00:00,185.6831,1.2,12.89,47.84626,-54.09684
2019-01-24 21:40:00+00:00,190.7998,1.2,12.89,47.84626,-54.09684
2019-01-24 21:50:00+00:00,193.0548,1.2,12.97,47.84626,-54.09684
2019-01-24 22:00:00+00:00,195.4964,1.2,12.81,47.84626,-54.09684
2019-01-24 22:10:00+00:00,208.6297,1.2,12.81,47.84626,-54.09684
2019-01-24 22:20:00+00:00,216.1915,1.2,12.89,47.84626,-54.09684
2019-01-24 22:30:00+00:00,211.8698,1.2,12.89,47.84626,-54.09684
2019-01-24 22:40:00+00:00,217.3031,1.2,12.89,47.84626,-54.09684
2019-01-24 22:50:00+00:00,228.673,1.2,12.89,47.84626,-54.09684
2019-01-24 23:00:00+00:00,228.9364,1.2,12.81,47.84626,-54.09684
2019-01-24 23:10:00+00:00,228.1897,1.16,12.81,47.84626,-54.09684
2019-01-24 23:20:00+00:00,234.1181,1.14,12.89,47.84626,-54.09684
2019-01-24 23:30:00+00:00,245.1198,1.16,12.89,47.84626,-54.09684
2019-01-24 23:40:00+00:00,252.5031,1.17,12.89,47.84626,-54.09684
2019-01-24 23:50:00+00:00,257.4114,1.19,12.89,47.84626,-54.09684
